Hourly Weather Ruzsa

Today, 22 April, Thursday

Time Temperature Precipitation Wind Pressure Humidity
00:00 +10°C° 0 mm 3 mps 752 mmHg 72%
01:00 +10°C° 0 mm 4 mps 752 mmHg 75%
02:00 +9°C° 0.1 mm 3 mps 752 mmHg 77%
03:00 +8°C° 0.1 mm 3 mps 752 mmHg 79%
04:00 +8°C° 0.1 mm 3 mps 752 mmHg 80%
05:00 +8°C° 0 mm 4 mps 752 mmHg 77%
06:00 +10°C° 0 mm 4 mps 752 mmHg 73%
07:00 +11°C° 0 mm 4 mps 752 mmHg 69%
08:00 +12°C° 0 mm 5 mps 752 mmHg 62%
09:00 +14°C° 0 mm 6 mps 753 mmHg 55%
10:00 +16°C° 0 mm 6 mps 753 mmHg 48%
11:00 +16°C° 0 mm 6 mps 752 mmHg 47%
12:00 +17°C° 0 mm 6 mps 752 mmHg 45%
13:00 +19°C° 0 mm 6 mps 752 mmHg 44%
14:00 +17°C° 0 mm 5 mps 752 mmHg 46%
15:00 +17°C° 0 mm 5 mps 751 mmHg 48%
16:00 +18°C° 0 mm 4 mps 751 mmHg 50%
17:00 +15°C° 0.8 mm 4 mps 751 mmHg 62%
18:00 +13°C° 0.8 mm 4 mps 752 mmHg 74%
19:00 +11°C° 0.8 mm 4 mps 752 mmHg 86%
20:00 +9°C° 0.4 mm 5 mps 753 mmHg 85%
21:00 +8°C° 0.4 mm 5 mps 753 mmHg 84%
22:00 +8°C° 0.4 mm 5 mps 754 mmHg 83%
23:00 +7°C° 0.7 mm 4 mps 754 mmHg 84%

Tomorrow, 23 April, Friday

Time Temperature Precipitation Wind Pressure Humidity
00:00 +8°C° 0.7 mm 3 mps 754 mmHg 84%
01:00 +7°C° 0.7 mm 2 mps 754 mmHg 84%
02:00 +7°C° 0 mm 3 mps 755 mmHg 82%
03:00 +5°C° 0 mm 3 mps 755 mmHg 80%
04:00 +5°C° 0 mm 4 mps 755 mmHg 78%
05:00 +5°C° 0 mm 4 mps 755 mmHg 74%
06:00 +6°C° 0 mm 5 mps 756 mmHg 69%
07:00 +7°C° 0 mm 6 mps 756 mmHg 65%
08:00 +8°C° 0 mm 6 mps 756 mmHg 60%
09:00 +9°C° 0 mm 7 mps 757 mmHg 54%
10:00 +10°C° 0 mm 7 mps 757 mmHg 49%
11:00 +11°C° 0 mm 7 mps 757 mmHg 46%
12:00 +12°C° 0 mm 7 mps 757 mmHg 43%
13:00 +12°C° 0 mm 7 mps 756 mmHg 41%
14:00 +12°C° 0 mm 7 mps 756 mmHg 42%
15:00 +12°C° 0 mm 7 mps 756 mmHg 42%
16:00 +13°C° 0 mm 6 mps 756 mmHg 43%
17:00 +10°C° 0 mm 5 mps 756 mmHg 49%
18:00 +10°C° 0 mm 4 mps 756 mmHg 55%
19:00 +8°C° 0 mm 2 mps 757 mmHg 61%
20:00 +8°C° 0 mm 2 mps 757 mmHg 63%
21:00 +7°C° 0 mm 2 mps 757 mmHg 65%
22:00 +7°C° 0 mm 3 mps 757 mmHg 66%
23:00 +5°C° 0 mm 3 mps 757 mmHg 68%

Day after tomorrow, 24 April, Saturday

Time Temperature Precipitation Wind Pressure Humidity
00:00 +5°C° 0 mm 3 mps 757 mmHg 69%
01:00 +4°C° 0 mm 3 mps 757 mmHg 71%
02:00 +4°C° 0 mm 3 mps 757 mmHg 71%
03:00 +4°C° 0 mm 3 mps 757 mmHg 71%
04:00 +3°C° 0 mm 3 mps 757 mmHg 71%
05:00 +4°C° 0 mm 3 mps 757 mmHg 68%
06:00 +5°C° 0 mm 3 mps 758 mmHg 66%
07:00 +7°C° 0 mm 3 mps 758 mmHg 64%
08:00 +9°C° 0 mm 3 mps 758 mmHg 58%
09:00 +10°C° 0 mm 2 mps 758 mmHg 53%
10:00 +13°C° 0 mm 2 mps 758 mmHg 47%
11:00 +14°C° 0 mm 2 mps 758 mmHg 45%
12:00 +14°C° 0 mm 2 mps 757 mmHg 43%
13:00 +15°C° 0 mm 2 mps 757 mmHg 41%
14:00 +15°C° 0 mm 2 mps 756 mmHg 41%
15:00 +16°C° 0 mm 2 mps 756 mmHg 41%
16:00 +16°C° 0 mm 2 mps 756 mmHg 41%
17:00 +14°C° 0 mm 2 mps 756 mmHg 46%
18:00 +13°C° 0 mm 1 mps 756 mmHg 52%
19:00 +11°C° 0 mm 1 mps 756 mmHg 58%
20:00 +10°C° 0 mm 1 mps 756 mmHg 60%
21:00 +9°C° 0 mm 2 mps 756 mmHg 63%
22:00 +8°C° 0 mm 2 mps 756 mmHg 65%
23:00 +7°C° 0 mm 2 mps 756 mmHg 67%

25 April, Sunday

Time Temperature Precipitation Wind Pressure Humidity
00:00 +7°C° 0 mm 2 mps 755 mmHg 69%
01:00 +7°C° 0 mm 2 mps 755 mmHg 71%
02:00 +6°C° 0 mm 2 mps 755 mmHg 72%
03:00 +6°C° 0 mm 2 mps 755 mmHg 73%
04:00 +6°C° 0 mm 2 mps 755 mmHg 74%
05:00 +7°C° 0 mm 2 mps 755 mmHg 71%
06:00 +8°C° 0 mm 2 mps 755 mmHg 68%
07:00 +11°C° 0 mm 1 mps 755 mmHg 65%
08:00 +12°C° 0 mm 1 mps 755 mmHg 60%
09:00 +14°C° 0 mm 2 mps 755 mmHg 55%
10:00 +15°C° 0 mm 2 mps 755 mmHg 50%
11:00 +16°C° 0.1 mm 2 mps 755 mmHg 50%
12:00 +17°C° 0.1 mm 3 mps 755 mmHg 49%
13:00 +17°C° 0.1 mm 3 mps 755 mmHg 49%
14:00 +17°C° 0.1 mm 4 mps 755 mmHg 48%
15:00 +17°C° 0.1 mm 4 mps 754 mmHg 48%
16:00 +16°C° 0.1 mm 5 mps 754 mmHg 48%
17:00 +14°C° 0 mm 4 mps 755 mmHg 52%
18:00 +12°C° 0 mm 4 mps 755 mmHg 56%
19:00 +10°C° 0 mm 4 mps 755 mmHg 60%
20:00 +9°C° 0 mm 3 mps 755 mmHg 62%
21:00 +8°C° 0 mm 3 mps 756 mmHg 64%
22:00 +7°C° 0 mm 3 mps 756 mmHg 66%
23:00 +5°C° 0 mm 3 mps 756 mmHg 70%

26 April, Monday

Time Temperature Precipitation Wind Pressure Humidity
00:00 +5°C° 0 mm 3 mps 756 mmHg 75%
01:00 +4°C° 0 mm 3 mps 756 mmHg 79%
02:00 +5°C° 0 mm 2 mps 756 mmHg 81%
03:00 +4°C° 0 mm 2 mps 756 mmHg 84%
04:00 +4°C° 0 mm 2 mps 755 mmHg 86%
05:00 +4°C° 0 mm 3 mps 755 mmHg 78%
06:00 +5°C° 0 mm 3 mps 755 mmHg 70%
07:00 +7°C° 0 mm 3 mps 755 mmHg 62%
08:00 +9°C° 0 mm 3 mps 755 mmHg 57%
09:00 +11°C° 0 mm 3 mps 755 mmHg 52%
10:00 +13°C° 0 mm 2 mps 755 mmHg 47%
11:00 +14°C° 0 mm 2 mps 754 mmHg 46%
12:00 +14°C° 0 mm 3 mps 754 mmHg 44%
13:00 +16°C° 0 mm 3 mps 753 mmHg 43%
14:00 +16°C° 0 mm 3 mps 753 mmHg 44%
15:00 +16°C° 0 mm 3 mps 753 mmHg 46%
16:00 +16°C° 0 mm 3 mps 752 mmHg 47%
17:00 +13°C° 0 mm 3 mps 752 mmHg 55%
18:00 +11°C° 0 mm 4 mps 752 mmHg 63%
19:00 +10°C° 0 mm 4 mps 752 mmHg 71%
20:00 +8°C° 0 mm 4 mps 752 mmHg 72%
21:00 +9°C° 0 mm 3 mps 752 mmHg 72%
22:00 +8°C° 0 mm 3 mps 751 mmHg 73%
23:00 +9°C° 0 mm 3 mps 751 mmHg 71%

27 April, Tuesday

Time Temperature Precipitation Wind Pressure Humidity
00:00 +9°C° 0 mm 3 mps 751 mmHg 69%
01:00 +9°C° 0 mm 2 mps 750 mmHg 68%
02:00 +9°C° 0.1 mm 3 mps 750 mmHg 70%
03:00 +9°C° 0.1 mm 3 mps 749 mmHg 72%
04:00 +8°C° 0.1 mm 3 mps 748 mmHg 73%
05:00 +9°C° 0 mm 3 mps 748 mmHg 72%
06:00 +10°C° 0 mm 4 mps 747 mmHg 70%
07:00 +11°C° 0 mm 4 mps 747 mmHg 69%
08:00 +11°C° 0.3 mm 4 mps 747 mmHg 72%
09:00 +12°C° 0.3 mm 4 mps 746 mmHg 74%
10:00 +13°C° 0.3 mm 5 mps 746 mmHg 77%
11:00 +15°C° 0 mm 5 mps 745 mmHg 70%
12:00 +17°C° 0 mm 6 mps 744 mmHg 63%
13:00 +20°C° 0 mm 7 mps 743 mmHg 55%
14:00 +19°C° 0 mm 6 mps 743 mmHg 58%
15:00 +19°C° 0 mm 5 mps 742 mmHg 60%
16:00 +19°C° 0 mm 4 mps 741 mmHg 63%
17:00 +18°C° 0.1 mm 4 mps 741 mmHg 67%
18:00 +17°C° 0.1 mm 4 mps 741 mmHg 72%
19:00 +15°C° 0.1 mm 4 mps 741 mmHg 76%
20:00 +14°C° 0.4 mm 3 mps 741 mmHg 80%
21:00 +14°C° 0.4 mm 2 mps 741 mmHg 85%
22:00 +14°C° 0.4 mm 2 mps 741 mmHg 89%
23:00 +14°C° 0.4 mm 2 mps 741 mmHg 90%
Show more